This demonstration page uses our WeatherBlox Daily Observations layout. Learn more.

Left ArrowRight Arrow

47.50024, -111.30081

Hourly Observations for March 18, 2015

Temp ( °F °C ) Dew Point ( °F °C ) Humidity (%) Winds ( mph kmh ) Pressure ( in mb ) Visibility ( mi km ) Precip ( " mm )
12:53 am 00:53 Mostly Cloudy with Fog 34 1.1 34 1.1 100 100 Calm 30.04 1017 0 0 0.00 0.00
1:53 am 01:53 Cloudy with Mist and Fog 34 1.1 34 1.1 100 100 Calm 30.04 1017 0 0 0.00 0.00
2:07 am 02:07 Cloudy with Mist and Fog 34 1 34 1 100 100 Calm 30.03 1017 1 1 0.00 0.00
2:23 am 02:23 Mostly Cloudy with Fog 34 1 34 1 100 100 Calm 30.03 1017 0 0 0.00 0.00
2:48 am 02:48 Cloudy with Mist and Fog 34 1 34 1 100 100 WNW 3 6 30.03 1017 1 1 0.00 0.00
2:53 am 02:53 Cloudy with Mist and Fog 34 1.1 34 1.1 100 100 WNW 3 6 30.04 1017 1 1 0.00 0.00
3:04 am 03:04 Cloudy with Mist and Fog 34 1 34 1 100 100 Calm 30.06 1018 1 1 0.00 0.00
3:13 am 03:13 Cloudy with Mist and Fog 34 1 34 1 100 100 WNW 3 6 30.06 1018 1 1 0.00 0.00
3:53 am 03:53 Cloudy with Mist and Fog 34 1.1 34 1.1 100 100 NW 3 6 30.05 1018 1 1 0.00 0.00
4:53 am 04:53 Mostly Cloudy with Mist and Fog 34 1.1 34 1.1 100 100 Calm 30.04 1017 1 1 0.00 0.00
5:53 am 05:53 Mostly Cloudy with Fog 34 1.1 34 1.1 100 100 Calm 30.05 1018 1 1 0.00 0.00
6:14 am 06:14 Mostly Cloudy with Fog 34 1 34 1 100 100 Calm 30.06 1018 0 0 0.00 0.00
6:37 am 06:37 Mostly Cloudy with Fog 34 1 34 1 100 100 SSW 7 11 30.06 1018 1 1 0.00 0.00
6:53 am 06:53 Mostly Cloudy with Fog 34 1.1 34 1.1 100 100 SW 7 11 30.05 1018 1 1 0.00 0.00
7:08 am 07:08 Mostly Cloudy with Fog 34 1 34 1 100 100 SW 7 11 30.03 1017 0 0 0.00 0.00
7:50 am 07:50 Mostly Cloudy with Fog 34 1 34 1 100 100 Calm 30.03 1017 0 0 0.00 0.00
7:53 am 07:53 Mostly Cloudy with Fog 34 1.1 34 1.1 100 100 Calm 30.05 1018 0 0 0.00 0.00
8:03 am 08:03 Cloudy with Mist and Fog 34 1 34 1 100 100 SW 6 9 30.03 1017 1 2 0.00 0.00
8:05 am 08:05 Cloudy with Mist and Fog 36 2 34 1 93 93 SW 8 13 30.00 1016 4 6 0.00 0.00
8:13 am 08:13 Cloudy 36 2 34 1 93 93 SW 10 17 30.00 1016 10 16 0.00 0.00
8:53 am 08:53 Cloudy 36 2.2 34 1.1 93 93 SW 14 22 30.04 1017 10 16 0.00 0.00
9:53 am 09:53 Mostly Cloudy 41 5 33 0.6 73 73 SW 16 26 30.03 1017 10 16 0.00 0.00
10:53 am 10:53 Cloudy 48 8.9 33 0.6 56 56 SW 18 30 30.02 1017 10 16 0.00 0.00
11:53 am 11:53 Cloudy 48 8.9 30 -1.1 50 50 WSW 15 24 30.02 1017 10 16 0.00 0.00
12:53 pm 12:53 Cloudy with Light Rain 47 8.3 31 -0.6 54 54 WSW 20 31 30.02 1017 10 16 0.00 0.03
1:12 pm 13:12 Cloudy with Light Rain 45 7 36 2 71 71 N 15 24 29.97 1015 10 16 0.00 0.00
1:53 pm 13:53 Cloudy 45 7.2 34 1.1 66 66 NNW 22 35 30.06 1018 10 16 0.00 0.03
2:53 pm 14:53 Cloudy with Light Rain 41 5 37 2.8 86 86 WNW 20 31 30.09 1019 10 16 0.00 0.03
3:53 pm 15:53 Cloudy 43 6.1 35 1.7 74 74 SW 14 22 30.08 1019 10 16 0.00 0.03
4:53 pm 16:53 Cloudy 45 7.2 36 2.2 71 71 WSW 13 20 30.08 1019 10 16 0.00 0.00
5:53 pm 17:53 Mostly Cloudy 45 7.2 37 2.8 74 74 SSW 13 20 30.08 1019 10 16 0.00 0.00
6:53 pm 18:53 Mostly Cloudy 45 7.2 37 2.8 74 74 SSW 5 7 30.09 1019 10 16 0.00 0.00
7:53 pm 19:53 Cloudy 43 6.1 33 0.6 68 68 W 7 11 30.11 1020 10 16 0.00 0.00
8:53 pm 20:53 Partly Cloudy 36 2.2 28 -2.2 73 73 W 5 7 30.14 1021 10 16 0.00 0.00
9:53 pm 21:53 Mostly Clear 32 0 26 -3.3 79 79 WSW 8 13 30.16 1021 10 16 0.00 0.00
10:53 pm 22:53 Mostly Clear 33 0.6 27 -2.8 78 78 SW 12 19 30.14 1021 10 16 0.00 0.00
11:53 pm 23:53 Clear 34 1.1 27 -2.8 76 76 SW 12 19 30.15 1021 10 16 0.00 0.00

Powered by AerisWeather